Балаханы

Азербайджан     40°27′43″N   49°55′11″E
темп.,
°C
ветер,
м/с
пор.,
м/с
влажн.,
%
обл.,
%
осадки,
мм/ч
давл.,
гПа
погр.,
м
26 февраля, пт
пт2601:00+3ююз6106360 0.1 1032566
04:00+3ююз9135958 0.1 1030747
07:00+2юз8105893 0.0 1030509
10:00+3з345584 0.0 1030395
13:00+6зюз333992 0.0 1029598
16:00+7ю223688 0.0 1027552
19:00+7ююв344291 0.0 1027294
22:00+6ю466879 0.0 1027237
27 февраля, сб
сб2701:00+6юз475217 0.0 1025187
04:00+5ююз465755 0.0 1024154
07:00+5ююз5758100 0.0 1023156
10:00+7ююз795278 0.0 1024315
13:00+9ююз911440 0.0 1022496
16:00+10ю810450 0.0 1019531
19:00+8ю811680 0.0 1019467
22:00+8ююз711730 0.0 1019558
28 февраля, вс
вс2801:00+7ююз610800 0.0 1017490
04:00+6ююз510850 0.0 1015380
07:00+6ююз610820 0.0 1015332
10:00+8юз68660 0.0 1015344
13:00+12юз34420 0.0 1014464
16:00+13ю33400 0.0 1013552
19:00+11вюв23500 0.0 1014211
22:00+9ссз710560 0.0 1016532
1 марта, пн
пн101:00+7ссз1013810 0.0 1016560
04:00+7ссз912860 0.0 1017609
07:00+6с8119115 0.0 1020520
10:00+7ссв8108243 0.0 1022591
13:00+7с8107292 0.0 1024768
16:00+8с896571 0.0 1024910
19:00+7с79719 0.0 1025885
22:00+6ссв787223 0.0 1027706
2 марта, вт
вт201:00+5ссв687385 0.0 1027653
04:00+5ссв687691 0.0 1027708
07:00+5ссв687397 0.0 1028765
10:00+5ссв786899 0.0 1029898
13:00+6ссв6766100 0.0 1028897
16:00+6ссв6766100 0.0 1027846
19:00+5ссв6768100 0.0 1027792
22:00+5ссв5669100 0.0 1027652